Home > Weather > Chatham-Kent > Past weeks

Flag for Canada Weather for the Past 2 Weeks in Chatham-Kent, Ontario, Canada

Now
11 °F

Cold.


Feels Like: -2 °F
Forecast: 11 / 17 °F
Wind: 10 mph from Northwest

Location: Erieau

Current Time: Feb 11, 2016 at 1:46:13 AM

Latest Report: Feb 11, 2016 at 1:00 AM


Visibility: N/A

Pressure: 30.01 "Hg

Humidity: 64%

Dew point: 2 °F

Location of Chatham-KentLocation

Historic Weather in Chatham-Kent — Graph

°F

Chatham-Kent Temperature Yesterday

Maximum temperature yesterday: 26 °F (at 3:00 AM)
Minimum temperature yesterday: 13 °F (at 11:00 PM)
Average temperature yesterday: 20 °F

High & Low Weather Summary for the Past Weeks

 TemperatureHumidityPressure
High44 °F (Feb 3, 4:00 PM)100% (Feb 8, 3:00 PM)30.39 "Hg (Feb 8, 3:00 PM)
Low12 °F (Feb 11, 12:00 AM)55% (Jan 29, 4:00 PM)29.50 "Hg (Feb 3, 6:00 AM)
Average33 °F83%29.89 "Hg
* Reported Midnight between Jan 26 and Jan 27 — Midnight between Feb 10 and Feb 11, Chatham-Kent, Weather by CustomWeather, © 2016

Note: Actual official high and low records may vary slightly from our data, if they occured in-between our weather recording intervals... More about our weather records

Advertising

Chatham-Kent Weather History for the Previous 24 Hours

 ConditionsComfort  
Time TempWeatherWind HumidityBarometerVisibility
12:00 AM
Thu, Feb 11
12 °FCold.8 mph61%30.00 "HgN/A
11:00 PM
Wed, Feb 10
13 °FCold.10 mph61%29.99 "HgN/A
10:00 PM14 °FCold.9 mph69%29.96 "HgN/A
9:00 PM15 °FCold.7 mph98%29.95 "HgN/A
8:00 PM16 °FCold.5 mph90%29.93 "HgN/A
7:00 PM16 °FCold.6 mph94%29.92 "HgN/A
6:00 PM17 °FCold.6 mph80%29.90 "HgN/A
5:00 PM18 °FCold.6 mph70%29.88 "HgN/A
4:00 PM18 °FCold.6 mph68%29.86 "HgN/A
3:00 PM19 °FCold.8 mph69%29.84 "HgN/A
2:00 PM20 °FCold.9 mph62%29.82 "HgN/A
1:00 PM19 °FCold.10 mph69%29.82 "HgN/A
12:00 PM19 °FCold.12 mph68%29.82 "HgN/A
11:00 AM19 °FCold.14 mph68%29.80 "HgN/A
10:00 AM19 °FCold.8 mph97%29.78 "HgN/A
9:00 AM21 °FCold.6 mph87%29.76 "HgN/A
8:00 AM21 °FCold.6 mph87%29.76 "HgN/A
7:00 AM22 °FCold.8 mph83%29.74 "HgN/A
6:00 AM22 °FCold.8 mph86%29.73 "HgN/A
5:00 AM23 °FCold.9 mph80%29.71 "HgN/A
4:00 AM24 °FCold.10 mph79%29.70 "HgN/A
3:00 AM26 °FChilly.9 mph78%29.69 "HgN/A
2:00 AM24 °FCold.10 mph91%29.68 "HgN/A
1:00 AM25 °FCold.12 mph94%29.68 "HgN/A
Weather by CustomWeather, © 2016

See weather overviewHow to use our weather pages